DW9643 Weather Reports


time (UTC)temp
C
wind
direction
speed
KPH
gust
KPH
rain 1hr
cm
rain 24hr
cm
rain mn
cm
humidity
%
barometer
mb
20260505101603 15 0 0.0 11.3 0.08 0.08 0.08 84 1011.0
20260505100059 15 282 4.8 17.7 0.03 0.03 0.03 79 1011.1
20260505094607 17 288 4.8 30.6 0.00 0.00 0.00 68 1011.2
20260505093112 17 0 1.6 16.1 0.00 0.00 0.00 63 1010.4
20260505091603 17 226 1.6 17.7 0.00 0.00 0.00 63 1010.1
20260505084559 17 203 8.0 14.5 0.00 0.00 0.00 61 1009.3
20260505083100 17 195 6.4 17.7 0.00 0.00 0.00 61 1009.1
20260505081603 17 197 9.7 22.5 0.00 0.00 0.00 60 1008.8
20260505080058 18 203 11.3 25.7 0.00 0.00 0.00 60 1008.5
20260505074610 18 219 11.3 24.1 0.00 0.00 0.00 59 1008.6
20260505073107 18 201 11.3 22.5 0.00 0.00 0.00 59 1008.5
20260505071558 18 211 11.3 25.7 0.00 0.00 0.00 59 1008.3
20260505070100 18 186 11.3 25.7 0.00 0.00 0.00 58 1008.5
20260505064559 18 182 9.7 22.5 0.00 0.00 0.00 58 1008.6
20260505063100 18 194 9.7 25.7 0.00 0.00 0.00 57 1008.5
20260505061625 18 188 11.3 22.5 0.00 0.00 0.00 58 1008.4
20260505054625 18 196 12.9 24.1 0.00 0.00 0.00 57 1007.9
20260505053059 18 186 9.7 22.5 0.00 0.00 0.00 58 1007.9
20260505051559 18 202 11.3 24.1 0.00 0.00 0.00 57 1008.0
20260505041602 19 214 8.0 20.9 0.00 0.00 0.00 57 1008.7
20260505034600 19 209 9.7 17.7 0.00 0.00 0.00 58 1008.7
20260505033100 19 199 6.4 17.7 0.00 0.00 0.00 59 1008.8
20260505031615 19 189 4.8 14.5 0.00 0.00 0.00 59 1008.5
20260505024611 19 183 11.3 17.7 0.00 0.00 0.00 58 1008.1
20260505023101 19 163 9.7 17.7 0.00 0.00 0.00 58 1008.0
20260505021613 20 176 9.7 19.3 0.00 0.00 0.00 59 1008.0
20260505020100 20 176 9.7 19.3 0.00 0.00 0.00 58 1007.6
20260505014559 20 188 11.3 17.7 0.00 0.00 0.00 57 1007.2
20260505013057 20 184 8.0 14.5 0.00 0.00 0.00 58 1007.2
20260505011558 20 183 6.4 12.9 0.00 0.00 0.00 57 1007.1
20260505010057 20 192 4.8 12.9 0.00 0.00 0.00 56 1007.1
20260505004605 21 178 6.4 16.1 0.00 0.00 0.00 55 1007.0
20260505003100 21 186 9.7 20.9 0.00 0.00 0.00 55 1007.0
20260505001600 22 182 9.7 17.7 0.00 0.00 0.00 52 1007.2
20260505000058 22 210 12.9 22.5 0.00 0.00 0.00 51 1007.4
20260504234558 22 228 11.3 24.1 0.00 0.00 0.00 52 1007.5
20260504233102 22 179 9.7 20.9 0.00 0.00 0.00 48 1007.7
20260504231557 23 182 8.0 20.9 0.00 0.00 0.00 46 1007.9
20260504230101 23 219 6.4 22.5 0.00 0.00 0.00 48 1008.1
20260504224559 23 193 14.5 37.0 0.00 0.00 0.00 47 1008.2
20260504223103 23 181 16.1 27.4 0.00 0.00 0.00 46 1008.1
20260504221608 23 199 8.0 20.9 0.00 0.00 0.00 44 1008.2
20260504220135 24 205 11.3 32.2 0.00 0.00 0.00 42 1008.2
20260504214558 24 201 9.7 37.0 0.00 0.00 0.00 46 1008.2
20260504213123 25 193 9.7 25.7 0.00 0.00 0.00 46 1008.1
20260504211559 25 251 8.0 19.3 0.00 0.00 0.00 46 1008.6
20260504204619 23 193 9.7 17.7 0.00 0.00 0.00 52 1008.6
20260504203100 23 194 9.7 19.3 0.00 0.00 0.00 48 1008.8
20260504201612 23 0 4.8 17.7 0.00 0.00 0.00 51 1009.1
20260504200109 22 204 4.8 22.5 0.00 0.00 0.00 50 1009.5
20260504194559 22 217 9.7 25.7 0.00 0.00 0.00 49 1009.8
20260504193103 22 198 6.4 19.3 0.00 0.00 0.00 52 1009.9
20260504191559 22 252 3.2 24.1 0.00 0.00 0.00 53 1010.1
20260504190100 22 213 1.6 12.9 0.00 0.00 0.00 57 1010.2
20260504184601 22 195 4.8 19.3 0.00 0.00 0.00 63 1010.4
20260504183104 21 271 9.7 20.9 0.00 0.00 0.00 58 1010.5
20260504181614 21 163 11.3 32.2 0.00 0.00 0.00 60 1010.3
20260504174600 20 187 14.5 27.4 0.00 0.00 0.00 60 1010.2
20260504173101 19 194 17.7 30.6 0.00 0.00 0.00 61 1010.2
20260504171606 18 196 12.9 25.7 0.00 0.00 0.00 62 1010.3
20260504170104 18 205 9.7 24.1 0.00 0.00 0.00 63 1010.4
20260504160106 19 168 12.9 32.2 0.00 0.00 0.00 62 1011.1
20260504150104 17 199 6.4 19.3 0.00 0.00 0.00 65 1010.8
20260504110104 11 195 11.3 22.5 0.00 0.00 0.00 69 1011.3